Location: Arclight Observatory
(36.5667°N, 87.3333°W)
Time: 18:18:20
(UTC-05:00)

Hubble Space Telescope - Visible Passes

Search period start: 24 May 2015 00:00
Search period end: 03 June 2015 00:00
Orbit: 542 x 546 km, 28.5° (Epoch: 23 May)

Date Brightness Start Highest point End Pass type
(mag) Time Alt. Az. Time Alt. Az. Time Alt. Az.
31 May 3.1 05:02:26 10° S 05:03:53 12° SSE 05:05:24 10° SE visible
01 Jun 2.9 04:52:51 10° SSW 04:55:04 14° SSE 04:57:19 10° SE visible
02 Jun 2.7 04:43:35 10° SSW 04:46:15 17° SSE 04:48:57 10° ESE visible
